TimeEDT,TemperatureF,Dew PointF,Humidity,Sea Level PressureIn,VisibilityMPH,Wind Direction,Wind SpeedMPH,Gust SpeedMPH,PrecipitationIn,Events,Conditions,WindDirDegrees,DateUTC
12:54 AM,55.0,48.9,80,30.35,10.0,Calm,Calm,-,N/A,,Clear,0,2013-09-18 04:54:00
1:54 AM,52.0,48.0,86,30.35,10.0,Calm,Calm,-,N/A,,Clear,0,2013-09-18 05:54:00
2:54 AM,52.0,48.0,86,30.34,10.0,Calm,Calm,-,N/A,,Overcast,0,2013-09-18 06:54:00
3:54 AM,53.1,48.0,83,30.32,10.0,Calm,Calm,-,N/A,,Overcast,0,2013-09-18 07:54:00
4:54 AM,52.0,48.9,89,30.32,10.0,Calm,Calm,-,N/A,,Clear,0,2013-09-18 08:54:00
5:54 AM,50.0,46.9,89,30.33,10.0,Calm,Calm,-,N/A,,Clear,0,2013-09-18 09:54:00
6:54 AM,48.0,45.0,89,30.34,10.0,Calm,Calm,-,N/A,,Clear,0,2013-09-18 10:54:00
7:14 AM,48.2,46.4,93,30.35,10.0,Calm,Calm,-,N/A,,Mostly Cloudy,0,2013-09-18 11:14:00
7:54 AM,50.0,46.9,89,30.35,10.0,Calm,Calm,-,N/A,,Mostly Cloudy,0,2013-09-18 11:54:00
8:26 AM,51.8,48.2,88,30.36,10.0,Calm,Calm,-,N/A,,Scattered Clouds,0,2013-09-18 12:26:00
8:54 AM,53.1,48.0,83,30.36,10.0,Calm,Calm,-,N/A,,Scattered Clouds,0,2013-09-18 12:54:00
9:54 AM,55.9,48.9,77,30.35,10.0,Variable,3.5,-,N/A,,Partly Cloudy,0,2013-09-18 13:54:00
10:54 AM,60.1,48.9,67,30.34,10.0,SE,8.1,-,N/A,,Scattered Clouds,130,2013-09-18 14:54:00
11:15 AM,60.8,48.2,63,30.34,10.0,ESE,6.9,-,N/A,,Mostly Cloudy,110,2013-09-18 15:15:00
11:54 AM,62.1,48.9,62,30.32,10.0,SE,6.9,-,N/A,,Overcast,130,2013-09-18 15:54:00
12:54 PM,62.1,48.9,62,30.30,10.0,SE,8.1,-,N/A,,Overcast,140,2013-09-18 16:54:00
1:54 PM,64.0,50.0,60,30.28,10.0,Variable,4.6,-,N/A,,Mostly Cloudy,0,2013-09-18 17:54:00
2:54 PM,66.0,51.1,59,30.25,10.0,Variable,4.6,-,N/A,,Partly Cloudy,0,2013-09-18 18:54:00
3:54 PM,68.0,52.0,56,30.23,10.0,Variable,6.9,-,N/A,,Partly Cloudy,0,2013-09-18 19:54:00
4:54 PM,66.9,52.0,59,30.22,10.0,ESE,8.1,-,N/A,,Clear,120,2013-09-18 20:54:00
5:54 PM,66.0,53.1,63,30.22,10.0,SE,8.1,-,N/A,,Partly Cloudy,130,2013-09-18 21:54:00
6:54 PM,64.0,53.1,67,30.22,10.0,SSE,5.8,-,N/A,,Overcast,150,2013-09-18 22:54:00
7:54 PM,63.0,54.0,72,30.22,10.0,SE,3.5,-,N/A,,Overcast,140,2013-09-18 23:54:00
8:54 PM,63.0,54.0,72,30.22,10.0,ESE,3.5,-,N/A,,Overcast,120,2013-09-19 00:54:00
9:54 PM,63.0,54.0,72,30.22,10.0,Calm,Calm,-,N/A,,Overcast,0,2013-09-19 01:54:00
10:54 PM,62.1,54.0,75,30.22,10.0,ESE,4.6,-,N/A,,Overcast,120,2013-09-19 02:54:00
11:54 PM,62.1,54.0,75,30.22,10.0,ESE,3.5,-,N/A,,Overcast,120,2013-09-19 03:54:00